Find Starlink 35009

NORAD ID: 65449 Int'l Des: 2025-194 Owner: SPXS Country: US Constellation: starlink operational
LEOCIRCULARRETROGRADESSO

当前视图

正在加载3D地球...

关于 Starlink 35009

正在加载描述...

即将过境

Passes for default location (London). Set your location on the main map for personalized predictions.

高度历史

Loading altitude history...

两行轨道根数

1 65449U 25194R 26150.04180881 .00008586 00000-0 59827-3 0 9994
2 65449 97.4349 4.1725 0002547 87.9430 272.2089 15.05655644 41897
Epoch: May 30, 2026 • Age: 13 hours

当前状态

高度 551.4 km
速度 7.59 km/s
星下点 9.46°N, 91.72°W
发射日期 Sep 3, 2025
运行时间 0.7 years
类型 internet

技术详情

分类 Payload
质量 575.00 kg
干质量 530.00 kg
总质量 575.00 kg
长度 0.30 m
直径 4.10 m
跨度 29.00 m
形状 Box + pan
制造商 SPXS
平台类型 Starlink V2MO
阶段状态 In Orbit
所有者/国家 SPXS/US

Most Searched